TimePST,TemperatureF,Dew PointF,Humidity,Sea Level PressureIn,VisibilityMPH,Wind Direction,Wind SpeedMPH,Gust SpeedMPH,PrecipitationIn,Events,Conditions,WindDirDegrees,DateUTC
12:51 AM,52.0,28.9,41,30.06,10.0,Calm,Calm,-,N/A,,Clear,0,2013-01-21 08:51:00
1:51 AM,50.0,28.9,44,30.05,10.0,Calm,Calm,-,N/A,,Clear,0,2013-01-21 09:51:00
2:51 AM,46.9,28.9,50,30.03,10.0,Calm,Calm,-,N/A,,Clear,0,2013-01-21 10:51:00
3:51 AM,48.0,27.0,44,30.02,10.0,NNE,3.5,-,N/A,,Clear,30,2013-01-21 11:51:00
4:51 AM,48.0,24.1,39,30.02,10.0,North,3.5,-,N/A,,Partly Cloudy,360,2013-01-21 12:51:00
5:51 AM,46.9,26.1,44,30.02,10.0,Calm,Calm,-,N/A,,Partly Cloudy,0,2013-01-21 13:51:00
6:51 AM,46.0,25.0,44,30.04,10.0,North,3.5,-,N/A,,Partly Cloudy,10,2013-01-21 14:51:00
7:51 AM,48.9,26.1,41,30.05,10.0,NNW,3.5,-,N/A,,Clear,340,2013-01-21 15:51:00
8:51 AM,57.0,23.0,27,30.06,10.0,Calm,Calm,-,N/A,,Clear,0,2013-01-21 16:51:00
9:51 AM,64.9,23.0,20,30.09,10.0,Calm,Calm,-,N/A,,Clear,0,2013-01-21 17:51:00
10:51 AM,72.0,12.0,10,30.09,10.0,NW,4.6,-,N/A,,Clear,320,2013-01-21 18:51:00
11:51 AM,73.0,15.1,11,30.06,10.0,NNW,6.9,-,N/A,,Clear,330,2013-01-21 19:51:00
12:51 PM,73.9,12.0,9,30.05,10.0,WNW,10.4,-,N/A,,Clear,300,2013-01-21 20:51:00
1:51 PM,75.9,1.0,5,30.03,10.0,NNW,11.5,-,N/A,,Partly Cloudy,330,2013-01-21 21:51:00
2:51 PM,75.0,7.0,7,30.02,10.0,NW,8.1,-,N/A,,Partly Cloudy,320,2013-01-21 22:51:00
3:51 PM,75.0,19.9,13,30.02,10.0,NNW,5.8,-,N/A,,Partly Cloudy,330,2013-01-21 23:51:00
4:51 PM,71.1,17.1,13,30.01,10.0,NNW,6.9,-,N/A,,Partly Cloudy,330,2013-01-22 00:51:00
5:51 PM,69.1,21.0,16,30.01,10.0,NNW,3.5,-,N/A,,Partly Cloudy,330,2013-01-22 01:51:00
6:51 PM,64.9,25.0,22,30.02,10.0,North,5.8,-,N/A,,Partly Cloudy,350,2013-01-22 02:51:00
7:51 PM,64.0,24.1,22,30.04,10.0,Calm,Calm,-,N/A,,Partly Cloudy,0,2013-01-22 03:51:00
8:51 PM,60.1,32.0,35,30.06,10.0,Calm,Calm,-,N/A,,Clear,0,2013-01-22 04:51:00
9:51 PM,57.0,28.0,33,30.08,10.0,Calm,Calm,-,N/A,,Clear,0,2013-01-22 05:51:00
10:51 PM,57.0,24.1,28,30.08,10.0,North,4.6,-,N/A,,Clear,10,2013-01-22 06:51:00
11:51 PM,53.1,28.0,38,30.08,10.0,Calm,Calm,-,N/A,,Partly Cloudy,0,2013-01-22 07:51:00